Location: Corcelles
(46.1547°N, 4.7234°E)
Time: 08:50:35
(UTC+00:00)

Landsat 4 - Pass Details

Date: 14 July 2020
Orbit: 506 x 522 km, 98.2° (Epoch: 14 August)

Event Time Altitude Azimuth Distance (km) Brightness Sun altitude
Rises 00:04:45 0° 11° (N) 2,659 8.8 -22.1°
Reaches altitude 10° 00:06:52 10° 9° (N) 1,768 7.5 -22.1°
Maximum altitude 00:10:39 70° 287° (WNW) 559 3.7 -22.0°
Enters shadow 00:10:47 70° 269° (W) 562 3.7 -22.0°
